www.pogodaiklimat.ru

Погода и климат >> Архив погоды >> Норвегия >> Маяк Buholmrasa


ПОГОДА на Маяке Buholmrasa

  • Прогноз погоды на Маяке Buholmrasa
  • Монитор погоды на Маяке Buholmrasa

АРХИВ ПОГОДЫ на Маяке Buholmrasa

Время (UTC), дата Ветер
(напр.,м/с)
 
Видим.   Явления Облачность Т
(С)
Тd
(С)
f
(%)
Тe
(С)
Тes
(С)
Комфортность P
(гПа)
Po
(гПа)
Тmin
(С)
Tmax
(С)
R
(мм)
R24
(мм)
S
(см)
10 12.07 С 4
{5}
н/о н/о +10.6 +9.7 94 +8 +8 1013.6 1011.4
11 12.07
{4}
н/о н/о +11.0 +9.9 93 1013.7 1011.5
12 12.07 С 3
{6}
н/о н/о +11.7 +9.8 88 +10 +10 1013.7 1011.5
13 12.07 С 4
{5}
н/о н/о +11.5 +9.6 88 +9 +9 1013.5 1011.3
14 12.07 СЗ 4
{5}
н/о н/о +11.8 +9.9 88 +10 +10 1013.6 1011.4
15 12.07 С 5
{6}
н/о н/о +11.6 +9.9 89 +9 +9 1013.6 1011.4
16 12.07 С 6
{7}
н/о н/о +11.6 +10.2 91 +9 +9 1013.6 1011.4
17 12.07 С 5
{7}
н/о н/о +11.8 +10.1 89 +9 +9 1013.7 1011.5
18 12.07
{7}
н/о н/о +11.9 +9.6 86 1013.7 1011.5 +10.5 +11.9
19 12.07 С 6
{7}
н/о н/о +11.9 +9.6 86 +9 +9 1013.9 1011.7
20 12.07 С 5
{7}
н/о н/о +11.9 +9.1 83 +9 +9 1014.0 1011.8
21 12.07 С 5
{7}
н/о н/о +11.5 +9.9 90 +9 +9 1014.5 1012.3
22 12.07 С 6
{7}
н/о н/о +11.2 +10.0 92 +8 +8 1014.5 1012.3
23 12.07 СЗ 4
{6}
н/о н/о +11.1 +9.9 92 +9 +9 1014.7 1012.5
00 13.07 СЗ 6
{7}
н/о н/о +10.7 +9.8 94 +7 +7 1014.6 1012.4
01 13.07 С 6
{7}
н/о н/о +10.5 +9.4 93 +7 +7 1014.7 1012.5
02 13.07 С 5
{7}
н/о н/о +10.5 +9.3 92 +7 +7 1015.0 1012.7
03 13.07 С 5
{7}
н/о н/о +10.2 +8.5 89 +7 +7 1015.1 1012.8
04 13.07 СЗ 5
{6}
н/о н/о +10.5 +8.4 87 +7 +7 1015.3 1013.0
05 13.07 СЗ 4
{6}
н/о н/о +10.1 +8.5 90 +7 +7 1015.5 1013.2
06 13.07 СЗ 4
{7}
н/о н/о +10.1 +8.9 92 +7 +7 1015.7 1013.4 +10.0 +12.0
07 13.07 С 3
{5}
н/о н/о +10.1 +8.9 92 +8 +8 1016.1 1013.8
08 13.07 СЗ 3
{4}
н/о н/о +10.4 +8.8 90 +8 +8 1016.4 1014.1
09 13.07 С 2
{4}
н/о н/о +10.3 +8.7 90 +9 +9 1016.4 1014.1
10 13.07 СЗ 2
{4}
н/о н/о +10.4 +9.0 91 +9 +9 1016.7 1014.4
11 13.07 С 3
{4}
н/о н/о +10.7 +9.0 89 +9 +9 1017.0 1014.7
12 13.07 З 3
{5}
н/о н/о +10.4 +8.7 89 +8 +8 1017.1 1014.8
13 13.07 З 2
{3}
н/о н/о +10.6 +8.5 87 +9 +9 1017.3 1015.0
14 13.07 З 1
{2}
н/о н/о +11.6 +9.0 84 +11 +11 1017.2 1015.0
15 13.07 СЗ 4
{5}
н/о н/о +11.4 +8.6 83 +9 +9 1017.2 1015.0
16 13.07 С 5
{6}
н/о н/о +11.4 +8.6 83 +9 +9 1017.3 1015.1
17 13.07 СЗ 5
{6}
н/о н/о +11.3 +8.4 82 +9 +9 1017.3 1015.1
18 13.07 СЗ 4
{6}
н/о н/о +11.4 +7.3 76 +9 +9 1017.5 1015.3 +10.0 +11.7
19 13.07 СЗ 4
{5}
н/о н/о +10.9 +8.5 85 +8 +8 1017.8 1015.5
20 13.07 З 2
{5}
н/о н/о +10.4 +8.5 88 +9 +9 1018.0 1015.7
21 13.07 З 4
{5}
н/о н/о +10.8 +8.0 83 +8 +8 1018.1 1015.8
22 13.07 ЮЗ 3
{4}
н/о н/о +10.6 +8.4 86 +9 +9 1018.2 1015.9
23 13.07 ЮЗ 4
{5}
н/о н/о +10.7 +8.5 86 +8 +8 1018.3 1016.0
00 14.07 Ю 4
{5}
н/о н/о +10.5 +8.8 89 +8 +8 1018.5 1016.2
01 14.07 З 3
{5}
н/о н/о +10.7 +7.6 81 +9 +9 1018.5 1016.2
02 14.07 ЮЗ 4
{5}
н/о н/о +10.7 +7.8 82 +8 +8 1018.2 1015.9
03 14.07 З 3
{5}
н/о н/о +11.2 +7.1 76 +9 +9 1017.9 1015.6
04 14.07 СЗ 4
{6}
н/о н/о +11.3 +6.5 72 +9 +9 1017.7 1015.5
05 14.07 З 4
{5}
н/о н/о +11.2 +6.6 73 +9 +9 1017.9 1015.6
06 14.07 З 4
{6}
н/о н/о +11.3 +6.3 71 +9 +9 1018.0 1015.7 +10.1 +11.7
07 14.07 СЗ 5
{7}
н/о н/о +10.8 +6.9 77 +8 +8 1018.2 1015.9
08 14.07 З 3
{7}
н/о н/о +9.9 +8.2 89 +8 +8 1018.7 1016.4
09 14.07 З 2
{3}
н/о н/о +10.2 +8.6 90 +9 +9 1018.7 1016.4
10 14.07 СЗ 5
{7}
н/о н/о +10.5 +7.6 82 +8 +8 1018.7 1016.4
11 14.07 З 4
{7}
н/о н/о +10.7 +7.9 83 +8 +8 1018.7 1016.4
12 14.07 СЗ 6
{7}
н/о н/о +10.9 +8.0 82 +8 +8 1018.7 1016.4
13 14.07 З 5
{6}
н/о н/о +11.2 +8.1 81 +9 +9 1018.8 1016.5
14 14.07 З 6
{7}
н/о н/о +10.1 +8.0 87 +7 +7 1018.7 1016.4
15 14.07 З 5
{7}
н/о н/о +10.8 +8.4 85 +8 +8 1018.8 1016.5
16 14.07 З 5
{7}
н/о н/о +10.2 +8.0 86 +7 +7 1018.6 1016.3
17 14.07 З 5
{7}
н/о н/о +10.5 +8.6 88 +7 +7 1018.4 1016.1
18 14.07 ЮЗ 3
{7}
н/о н/о +10.2 +8.8 91 +8 +8 1018.1 1015.8 +9.8 +11.4
19 14.07 СЗ 5
{7}
н/о н/о +10.7 +7.4 80 +8 +8 1017.7 1015.4
20 14.07 З 6
{7}
н/о н/о +10.9 +7.8 81 +8 +8 1017.8 1015.5
21 14.07 З 5
{7}
н/о н/о +10.9 +7.0 77 +8 +8 1017.5 1015.2
22 14.07 З 7
{9}
н/о н/о +10.2 +7.5 83 +7 +7 1017.2 1014.9
23 14.07 З 5
{7}
н/о н/о +10.3 +8.4 88 +7 +7 1016.9 1014.6
00 15.07 СЗ 5
{9}
н/о н/о +10.0 +7.9 87 +7 +7 1016.7 1014.4
01 15.07 З 6
{7}
н/о н/о +10.0 +8.1 88 +6 +6 1016.4 1014.1
02 15.07 З 6
{8}
н/о н/о +10.1 +8.5 90 +7 +7 1016.1 1013.8
03 15.07 СЗ 6
{8}
н/о н/о +10.2 +8.3 88 +7 +7 1016.0 1013.7
04 15.07 СЗ 4
{7}
н/о н/о +10.2 +7.5 83 +8 +8 1015.8 1013.5
05 15.07 З 5
{6}
н/о н/о +10.3 +7.7 84 +7 +7 1015.6 1013.3
06 15.07 ЮЗ 5
{8}
н/о н/о +9.8 +7.9 88 +7 +7 1015.3 1013.0 +9.7 +11.2
07 15.07 СЗ 4
{6}
н/о н/о +10.4 +7.8 84 +8 +8 1015.1 1012.8
08 15.07 СЗ 4
{5}
н/о н/о +10.7 +7.8 82 +8 +8 1015.1 1012.9
09 15.07 СЗ 4
{6}
н/о н/о +10.6 +8.2 85 +8 +8 1015.2 1012.9
10 15.07 СЗ 4
{5}
н/о н/о +10.9 +7.6 80 +9 +9 1014.9 1012.7
11 15.07 СЗ 4
{5}
н/о н/о +11.0 +7.5 79 +9 +9 1014.8 1012.6
12 15.07 С 4
{6}
н/о н/о +10.5 +8.1 85 +8 +8 1014.8 1012.6
13 15.07 С 4
{6}
н/о н/о +11.1 +8.2 82 +9 +9 1014.8 1012.6
14 15.07 С 4
{8}
н/о н/о +11.1 +7.4 78 +9 +9 1014.7 1012.5
15 15.07 С 6
{9}
н/о н/о +11.4 +8.3 81 +8 +8 1014.5 1012.3
16 15.07 С 7
{9}
н/о н/о +11.1 +6.7 74 +8 +8 1014.4 1012.2
17 15.07
{9}
н/о н/о +11.6 +7.3 75 1014.5 1012.3
18 15.07 С 9
{10}
н/о н/о +11.1 +7.4 78 +7 +7 1014.5 1012.3 +9.5 +11.6
19 15.07 С 8
{10}
н/о н/о +11.2 +7.7 79 +8 +8 1014.8 1012.6
20 15.07 С 8
{9}
н/о н/о +11.3 +8.4 82 +8 +8 1015.0 1012.8
21 15.07 С 8
{10}
н/о н/о +11.3 +8.2 81 +8 +8 1015.4 1013.2
22 15.07 С 8
{10}
н/о н/о +11.5 +8.5 82 +8 +8 1015.3 1013.1
23 15.07 С 8
{11}
н/о н/о +11.2 +9.1 87 +8 +8 1015.5 1013.3
00 16.07 С 7
{11}
н/о н/о +11.5 +8.7 83 +8 +8 1015.8 1013.6
01 16.07
{9}
н/о н/о +11.4 +8.3 81 1016.1 1013.9
02 16.07 С 5
{6}
н/о н/о +11.5 +8.5 82 +9 +9 1016.1 1013.9
03 16.07 С 6
{8}
н/о н/о +11.6 +9.2 85 +9 +9 1016.2 1014.0
04 16.07 С 8
{9}
н/о н/о +11.1 +8.7 85 +7 +7 1016.3 1014.1
05 16.07 С 7
{9}
н/о н/о +11.2 +9.5 89 +8 +8 1016.5 1014.3
06 16.07 С 7
{9}
н/о н/о +11.0 +9.1 88 +8 +8 1017.0 1014.7 +10.8 +11.9
07 16.07 СВ 7
{8}
н/о н/о +10.8 +9.2 90 +7 +7 1017.2 1014.9
08 16.07 С 7
{8}
н/о н/о +11.1 +9.2 88 +8 +8 1017.2 1014.9
09 16.07
{9}
н/о н/о +11.4 +8.8 84 1017.1 1014.9
10 16.07 С 6
{8}
н/о н/о +12.3 +8.8 79 +10 +10 1017.3 1015.1
11 16.07 С 6
{8}
н/о н/о +12.5 +8.0 74 +10 +10 1017.3 1015.1
12 16.07
{9}
н/о н/о +12.0 +8.3 78 1017.4 1015.2
13 16.07
{8}
н/о н/о +12.0 +8.5 79 1017.3 1015.1
14 16.07
{7}
н/о н/о +12.0 +8.3 78 1017.3 1015.1
15 16.07 С 7
{8}
н/о н/о +11.8 +7.7 76 +9 +9 1017.3 1015.1
16 16.07 С 7
{8}
н/о н/о +11.9 +8.2 78 +9 +9 1017.0 1014.8
17 16.07 С 7
{8}
н/о н/о +11.6 +7.9 78 +8 +8 1016.8 1014.6
18 16.07 С 7
{8}
н/о н/о +11.8 +8.3 79 +9 +9 1016.5 1014.3 +10.6 +12.8
19 16.07 С 7
{9}
н/о н/о +11.9 +8.0 77 +9 +9 1016.3 1014.1
20 16.07 СВ 6
{8}
н/о н/о +11.6 +7.3 75 +9 +9 1016.2 1014.0
21 16.07 СВ 6
{8}
н/о н/о +11.5 +7.6 77 +9 +9 1016.2 1014.0
22 16.07 СВ 7
{8}
н/о н/о +11.2 +7.9 80 +8 +8 1016.1 1013.9
23 16.07 СВ 8
{10}
н/о н/о +11.1 +7.4 78 +8 +8 1015.8 1013.6
00 17.07 СВ 6
{10}
н/о н/о +10.9 +7.4 79 +8 +8 1015.8 1013.6
01 17.07 СВ 6
{10}
н/о н/о +10.6 +6.0 73 +7 +7 1015.5 1013.2
02 17.07 СВ 6
{9}
н/о н/о +10.5 +5.9 73 +7 +7 1015.2 1012.9
03 17.07 СВ 6
{9}
н/о н/о +10.3 +6.1 75 +7 +7 1014.9 1012.6
04 17.07 СВ 4
{7}
н/о н/о +10.6 +6.2 74 +8 +8 1014.5 1012.3
05 17.07 СВ 3
{6}
н/о н/о +11.3 +6.3 71 +10 +10 1014.4 1012.2
06 17.07 СВ 5
{10}
н/о н/о +11.8 +5.5 65 +9 +9 1014.2 1012.0 +10.0 +12.0
07 17.07 С 5
{7}
н/о н/о +11.9 +7.0 72 +10 +10 1014.1 1011.9
08 17.07 С 7
{8}
н/о н/о +12.0 +7.7 75 +9 +9 1013.9 1011.7
09 17.07 С 8
{9}
н/о н/о +12.3 +7.4 72 +9 +9 1013.7 1011.5
10 17.07 С 8
{9}
н/о н/о +12.5 +7.0 69 +10 +10 1013.6 1011.4
11 17.07 С 8
{9}
н/о н/о +12.8 +6.8 67 +10 +10 1013.6 1011.4
12 17.07 С 8
{9}
н/о н/о +13.0 +6.6 65 +10 +10 1013.2 1011.0
13 17.07 С 7
{10}
н/о н/о +13.0 +6.6 65 +10 +10 1013.0 1010.8
14 17.07 С 8
{9}
н/о н/о +12.7 +7.2 69 +10 +10 1012.6 1010.4
15 17.07 С 7
{9}
н/о н/о +12.7 +8.0 73 +10 +10 1012.3 1010.1
16 17.07 С 7
{8}
н/о н/о +13.3 +8.0 70 +11 +11 1012.0 1009.8
17 17.07 С 6
{8}
н/о н/о +14.1 +8.5 69 +12 +12 1011.7 1009.5
18 17.07 СВ 7
{10}
н/о н/о +13.2 +7.9 70 +11 +11 1011.6 1009.4 +11.7 +14.2
19 17.07 СВ 7
{9}
н/о н/о +13.5 +8.4 71 +11 +11 1011.3 1009.1
20 17.07 СВ 5
{9}
н/о н/о +13.1 +8.4 73 +11 +11 1011.0 1008.8
21 17.07 СВ 4
{6}
н/о н/о +12.4 +8.7 78 +10 +10 1010.8 1008.6
22 17.07 СВ 5
{7}
н/о н/о +12.1 +9.1 82 +10 +10 1010.7 1008.5
23 17.07 В 1
{5}
н/о н/о +12.0 +8.5 79 +12 +12 1010.6 1008.4
00 18.07 СВ 1
{9}
н/о н/о +12.0 +8.3 78 +12 +12 1010.2 1008.0
01 18.07 В 1
{2}
н/о н/о +11.9 +7.8 76 +12 +12 1010.0 1007.8
02 18.07 СВ 1
{2}
н/о н/о +11.8 +7.5 75 +12 +12 1009.7 1007.5
03 18.07 штиль 0
{2}
н/о н/о +11.8 +7.9 77 +11 +11 1009.4 1007.2
04 18.07 В 2
{3}
н/о н/о +13.1 +8.0 71 +12 +12 1009.1 1006.9
05 18.07 С 1
{2}
н/о н/о +13.1 +8.2 72 +13 +13 1008.9 1006.7
06 18.07 С 1
{3}
н/о н/о +13.8 +9.1 73 +14 +14 1008.7 1006.5 +11.5 +14.6
07 18.07
{4}
н/о н/о +14.3 +10.7 79 1008.5 1006.3
08 18.07 С 4
{4}
н/о н/о +15.2 +11.0 76 +14 +14 1008.3 1006.1
09 18.07 С 4
{5}
н/о н/о +14.8 +11.2 79 +14 +14 1008.2 1006.0
10 18.07 С 5
{6}
н/о н/о +16.5 +11.4 72 +16 +16 1008.0 1005.8
11 18.07 С 6
{8}
н/о н/о +17.5 +11.3 67 +17 +17 1007.7 1005.5
12 18.07 С 6
{8}
н/о н/о +17.8 +11.4 66 +17 +17 1007.4 1005.2
13 18.07 С 8
{10}
н/о н/о +18.0 +10.9 63 +17 +17 1007.1 1004.9
14 18.07 С 8
{10}
н/о н/о +19.0 +10.8 59 +19 +19 1006.8 1004.6
15 18.07 СВ 8
{10}
н/о н/о +18.9 +12.2 65 +19 +19 1006.6 1004.4
16 18.07 СВ 9
{12}
н/о н/о +19.8 +11.8 60 +21 +21 комфорт 1006.1 1003.9
17 18.07 СВ 9
{11}
н/о н/о +20.1 +11.1 56 +21 +21 комфорт 1006.0 1003.8
18 18.07 С 4
{12}
н/о н/о +18.4 +13.5 73 +19 +19 1006.1 1003.9 +13.7 +20.5
19 18.07 СВ 2
{8}
н/о н/о +17.3 +13.6 79 +18 +18 1005.8 1003.6
20 18.07 В 2
{4}
н/о н/о +19.3 +13.7 70 +21 +21 комфорт 1005.8 1003.6
21 18.07 В 6
{9}
н/о н/о +20.3 +13.8 66 +22 +22 комфорт 1005.6 1003.4
22 18.07 В 6
{9}
н/о н/о +20.0 +13.5 66 +22 +22 комфорт 1005.8 1003.6
23 18.07 ЮВ 4
{8}
н/о н/о +19.9 +12.7 63 +22 +22 комфорт 1006.1 1003.9
00 19.07 ЮВ 3
{9}
н/о н/о +18.5 +12.5 68 +19 +19 1006.3 1004.1
01 19.07 ЮВ 5
{6}
н/о н/о +17.5 +12.0 70 +17 +17 1006.2 1004.0
02 19.07 ЮВ 6
{8}
н/о н/о +18.5 +11.1 62 +18 +18 1006.1 1003.9
03 19.07 ЮВ 3
{7}
н/о н/о +17.3 +11.4 68 +17 +17 1006.5 1004.3
04 19.07 ЮЗ 2
{6}
н/о н/о +13.7 +11.4 86 +13 +13 1006.6 1004.4
05 19.07 С 1
{3}
н/о н/о +15.4 +12.0 80 +16 +16 1006.6 1004.4
06 19.07 штиль 0
{8}
н/о н/о +16.4 +12.0 75 +16 +16 1006.6 1004.4 +13.5 +20.5
07 19.07 ЮВ 5
{7}
н/о н/о +19.5 +10.8 57 +20 +20 1006.6 1004.4
08 19.07 ЮВ 6
{7}
н/о н/о +19.0 +11.1 60 +19 +19 1006.6 1004.4
09 19.07 ЮВ 6
{7}
н/о н/о +20.3 +11.3 56 +22 +22 комфорт 1006.9 1004.7

 

Местоположение метеостанции Маяк Buholmrasa (Норвегия): широта 64.40 долгота 10.45 высота над уровнем моря 18 м.

В архиве по умолчанию представлена погода на Маяке Buholmrasa за последнюю неделю. Архивные данные за месяц целиком и за предыдущие месяцы, начиная с января 2011 года, Вы можете получить, выбрав интересующий диапазон дат из раскрывающегося списка и нажав кнопку "Ввод!".


*Определитесь, кто Вы:
робот инопланетянин человек

Внимание! Время в таблицах - всемирное. Для получения местного времени необходимо прибавить поправку, которая равна 1 ч.

Смотрите также архив погоды в соседних городах и на ближайших метеорологических станциях:

Погода на Маяке Nordoyan (Норвегия) (45 км)
Погода в Офьорде (Норвегия) (49 км)
Погода в Намсос аэропорту (Норвегия) (54 км)
Погода на Маяке Halten (Норвегия) (57 км)
Погода в Рорвик аэропорту (Норвегия) (58 км)
Погода в Стейнхьере (Норвегия) (64 км)
Погода в Орленде (Норвегия) (88 км)
Погода на Маяке Sklinna (Норвегия) (93 км)
Погода во Фросте (Норвегия) (93 км)
Погода в Гартлэнде (Норвегия) (94 км)

Пояснения к столбцам:

Ветер - указаны скорость ветра в м/с - средняя за 10 мин, порывы в срок и между сроками (в фигурных скобках) и направление, откуда дует ветер: С - северный, СВ - северо-восточный, В - восточный, ЮВ - юго-восточный, Ю - южный, ЮЗ - юго-западный, З - западный, СЗ - северо-западный.
Видимость - горизонтальная дальность видимости в метрах или километрах. При видимости от 1 до 10 км при отсутствии осадков обычно наблюдается дымка, при ухудшении видимости до 1 км и менее - туман. В сухую погоду видимость может ухудшаться дымом, пылью или мглою.
Явления - указаны атмосферные явления, наблюдавшиеся в срок или в последний час перед сроком; фигурными скобками обозначены явления, наблюдавшиеся между сроками (за 1-3 часа до срока); квадратными скобками обозначены град или гололедные отложения с указанием их диаметра в мм.
Облачность - указаны через наклонную черту общая и нижняя облачность в баллах и высота нижней границы облаков в метрах; квадратными скобками обозначены формы облаков: Ci - перистые, Cs - перисто-слоистые, Cc - перисто-кучевые, Ac - высококучевые, As - высокослоистые, Sc - слоисто-кучевые, Ns - слоисто-дождевые, Cu - кучевые, Cb - кучево-дождевые. Подробнее классификацию облаков см. в Атласе облаков (PDF).
T - Температура воздуха - температура, измеренная на высоте 2 м над землей.
Td - Температура точки росы - температура, при понижении до которой содержащийся в воздухе водяной пар достигнет насыщения.
f - Относительная влажность воздуха - влажноcть воздуха, измеренная на высоте 2 м над землей.
Te - Эффективная температура - температура, которую ощущает одетый по сезону человек в тени. Характеристика душности погоды. При расчете учитывается влияние влажности воздуха и скорости ветра на теплоощущения человека.
Tes - Эффективная температура на солнце - температура, которую ощущает человек, с поправкой на солнечный нагрев. Характеристика знойности погоды. Зависит от высоты солнца над горизонтом, облачности и скорости ветра. Ночью, в пасмурную погоду, а также при ветре 12 м/с и более поправка равна нулю.
P - Атмосферное давление - приведенное к уровню моря атмосферное давление.
Po - Атмосферное давление - измеренное на уровне метеостанции атмосферное давление.
Tmin - Минимальная температура - минимум температуры воздуха на высоте 2 м над землей.
Tmax - Максимальная температура - максимум температуры воздуха на высоте 2 м над землей.
R - Количество осадков - Количество выпавших осадков за период времени, мм. При наведении курсора мыши на число - период времени, за который выпало указанное количество осадков.
R24 - Количество осадков - Количество выпавших осадков за 24 часа, мм.
S - Снежный покров - Высота снежного покрова, см. При наведении курсора мыши на число - состояние снежного покрова и степень покрытия местности в баллах.